Regional Weather Roundup
Issued by NWS Burlington, VT

Home | Current Version | Previous Version | Text Only | Print | Product List | Glossary On
Versions: 1 2 3 4 5 6 7 8 9 10 11 12 13 14 15 16 17 18 19 20 21 22 23 24 25 26 27 28 29 30 31 32 33 34 35 36 37 38 39 40 41 42 43 44 45 46 47 48 49 50
000
ASUS41 KBTV 160430
RWRBTV
VERMONT REGIONAL WEATHER ROUNDUP
NATIONAL WEATHER SERVICE BURLINGTON VT
1200 AM EDT TUE SEP 16 2014

NOTE: "FAIR" INDICATES FEW OR NO CLOUDS BELOW 12,000 FEET WITH NO
SIGNIFICANT WEATHER AND/OR OBSTRUCTIONS TO VISIBILITY.

* THESE REPORTS ARE NOT UNDER NWS QUALITY CONTROL AND/OR DO NOT
  REPORT WEATHER SUCH AS PRECIPITATION AND FOG.

VTZ001>019-160500-
_____VERMONT_____


CITY           SKY/WX    TMP DP  RH WIND       PRES   REMARKS
BURLINGTON     LGT RAIN  56  46  69 S8        30.04F
MONTPELIER     LGT RAIN  50  47  89 CALM      30.11F
MORRISVILLE    CLOUDY    50  46  86 S5        30.08S
ST. JOHNSBURY*   N/A     48  46  93 MISG      30.07R
MIDDLEBURY*    RAIN      53  52  95 S5        30.06F
RUTLAND*       CLOUDY    52  45  76 SE8       30.08F
SPRINGFIELD    CLOUDY    50  47  89 CALM      30.11R
HIGHGATE*      DRIZZLE   53  48  84 CALM      30.04S
NEWPORT*       CLOUDY    48  45  87 S5        30.05F
BENNINGTON     CLOUDY    51  46  83 VRB3      30.08F
MT. MANSFIELD*   N/A     41 N/A N/A W9          N/A

_____LAKE CHAMPLAIN_____


CITY           SKY/WX    TMP DP  RH WIND       PRES   REMARKS
BURTON ISLAND*   N/A     59  48  67 SE13        N/A
COLCHESTER RF*   N/A     59  50  72 SW20        N/A
DIAMOND ISL*     N/A     55  48  76 S5          N/A

$$

NYZ007-026>031-035-052-083-160500-
_____NORTHERN NEW YORK_____


CITY           SKY/WX    TMP DP  RH WIND       PRES   REMARKS
PLATTSBURGH    CLOUDY    52  49  89 CALM      30.03F
SARANAC LAKE   LGT RAIN  48  47  96 W5        30.04F
MASSENA        LGT RAIN  53  51  93 S5        30.04F
OGDENSBURG*    PTCLDY    54  52  94 CALM      30.02F
WATERTOWN      LGT RAIN  56  49  77 CALM      30.03F
FT DRUM        DRIZZLE   54  52  94 S5        30.04S
ALBANY         CLOUDY    56  47  71 SE3       30.07F
GLENS FALLS    LGT RAIN  53  49  86 NE3       30.07F

$$
NHZ002-005-011-160500-
_____NEW HAMPSHIRE_____


CITY           SKY/WX    TMP DP  RH WIND       PRES   REMARKS
LEBANON        CLOUDY    50  46  86 CALM      30.09R
KEENE          MOCLDY    50  43  76 CALM      30.11S
MT WASHINGTON  CLOUDY    34  32  93 W25         N/A
PLYMOUTH       LGT RAIN  48  48 100 CALM      30.10R
WHITEFIELD     LGT RAIN  47  43  86 CALM      30.08S

$$

_____REGIONAL QUEBEC LOCATIONS_____


CITY           SKY/WX    TMP DP  RH WIND       PRES   REMARKS
MONTREAL       LGT RAIN  55  48  76 SW13      30.02F
QUEBEC CITY    LGT RAIN  52  50  93 W8        30.00R
SHERBROOKE     MOCLDY    45  43  93 E2        30.03F

_____REGIONAL ONTARIO LOCATIONS_____


CITY           SKY/WX    TMP DP  RH WIND       PRES   REMARKS
OTTAWA         LGT RAIN  52  50  93 S6        30.01F

______KEY______
VSB  - VISIBILITY IN MILES
WCI  - WIND CHILL INDEX
HX   - HEAT INDEX
$$
NNNN


USA.gov is the U.S. government's official web portal to all federal, state and local government web resources and services.